[[{"header":{"parameterUnit":"m.s-1","parameterCategory":1,"la1":30.2991,"la2":30.254,"lo1":-89.0895,"lo2":-89.0444,"dy":0.0017,"dx":0.0017,"nx":28,"ny":28,"refTime":"2023-03-22T21:00:00:Z","depth":0,"parameterNumber":2,"parameterNumberName":"U-component_of_WINDS"},"data":[0,0,0,0,0,0,0,0,0,0,0,0,0,0,0,0,0,0,0,0,0,0,0,0,0,0,0,0,0,0,0,0,0,0,0,0,0,0,0,0,0,0,0,0,0,0,0,0,0,0,0,0,0,0,0,0,0,0,-1.7005,-1.7006,0,-1.7055,-1.7055,-1.7056,-1.7051,-1.7051,-1.705,-1.7049,-1.7101,-1.7103,-1.7105,0,0,0,0,0,0,0,0,0,0,0,0,0,-1.6908,-1.691,-1.7005,-1.7006,-1.7006,-1.7054,-1.7055,-1.7056,-1.7052,-1.7051,-1.705,-1.7049,-1.71,-1.7103,-1.7105,0,0,0,0,0,0,0,0,0,0,0,0,0,-1.6953,-1.6911,-1.7005,-1.701,-1.7011,-1.7054,-1.7055,-1.7056,-1.7052,-1.7051,-1.705,-1.7048,-1.7099,-1.7102,-1.7106,-1.7147,0,0,-1.7115,-1.7116,0,0,0,0,0,0,0,0,-1.6951,-1.6957,-1.7009,-1.701,-1.7011,-1.7046,-1.704,-1.7087,-1.7052,-1.7036,-1.7049,-1.7048,-1.7084,-1.7088,-1.71,-1.715,-1.7152,-1.7115,-1.7117,-1.7119,-1.7119,0,0,0,0,0,0,0,-1.6948,-1.6955,-1.7025,-1.7009,-1.7011,-1.701,-1.7015,-1.7049,-1.7066,-1.7038,-1.7037,-1.7043,-1.7084,-1.7097,-1.7101,-1.7153,-1.7115,-1.7118,-1.712,-1.7121,-1.7239,-1.724,0,0,0,0,0,0,-1.6943,-1.6952,-1.7023,-1.7026,-1.6977,-1.7013,-1.7019,-1.7036,-1.7065,-1.7069,-1.7044,-1.7043,-1.7092,-1.7097,-1.7103,-1.7152,-1.7119,-1.7121,-1.7123,-1.7238,-1.724,-1.7241,0,0,0,0,0,0,-1.6941,-1.6949,-1.7021,-1.6989,-1.6998,-1.7016,-1.7035,-1.7037,-1.705,-1.707,-1.7073,-1.7054,-1.7091,-1.7098,-1.7136,-1.7154,-1.7123,-1.7126,-1.7237,-1.7239,-1.724,-1.7253,0,0,0,0,0,0,-1.6938,-1.6949,-1.6964,-1.6989,-1.7,-1.7053,-1.7036,-1.7039,-1.7055,-1.7054,-1.708,-1.7084,-1.7091,-1.7131,-1.7139,-1.7158,-1.7128,-1.7235,-1.7237,-1.724,-1.7251,-1.7255,-1.7259,0,0,0,0,0,-1.6935,-1.6967,-1.6965,-1.6974,-1.702,-1.7054,-1.706,-1.7068,-1.7057,-1.7073,-1.7086,-1.7083,-1.7152,-1.7135,-1.7144,-1.7164,-1.7234,-1.7237,-1.7239,-1.7249,-1.7254,-1.7259,0,0,0,0,0,0,-1.6944,-1.697,-1.6969,-1.7009,-1.703,-1.7053,-1.7074,-1.7073,-1.7097,-1.7095,-1.7104,-1.711,-1.7147,-1.716,-1.7141,-1.7206,-1.7191,-1.7196,-1.7196,-1.7201,-1.7205,-1.72,-1.7131,0,0,0,0,0,-1.695,-1.6976,-1.6998,-1.7031,-1.7042,-1.7056,-1.7071,-1.7075,-1.7097,-1.7105,-1.7121,-1.7143,-1.7169,-1.7186,-1.7211,-1.7254,-1.7259,-1.7272,-1.7276,-1.7279,-1.7282,-1.7305,-1.731,-1.725,-1.725,-1.725,0,0,-1.6964,-1.6982,-1.6997,-1.7034,-1.705,-1.7076,-1.7063,-1.7092,-1.7111,-1.711,-1.7146,-1.7159,-1.7183,-1.7223,-1.7241,-1.7234,-1.73,-1.7283,-1.7285,-1.7286,-1.7308,-1.7314,-1.7319,-1.7252,-1.7252,-1.7252,0,0,-1.7002,-1.7019,-1.7048,-1.7065,-1.7089,-1.7098,-1.7106,-1.713,-1.7138,-1.7174,-1.7174,-1.7198,-1.7243,-1.726,-1.7275,-1.732,-1.7318,-1.7329,-1.7348,-1.737,-1.7374,-1.7378,-1.7393,-1.7399,-1.7332,-1.7332,-1.7332,0,-1.7017,-1.7055,-1.7064,-1.7092,-1.7107,-1.7108,-1.7137,-1.7153,-1.7185,-1.7196,-1.7188,-1.7245,-1.7261,-1.7305,-1.7316,-1.7328,-1.7336,-1.7324,-1.7373,-1.7377,-1.7381,-1.7395,-1.7401,-1.7333,-1.7333,-1.7333,-1.7333,0,-1.7071,-1.7098,-1.7119,-1.7149,-1.7167,-1.7196,-1.7209,-1.7227,-1.723,-1.724,-1.7277,-1.7297,-1.7326,-1.7338,-1.7341,-1.7382,-1.7376,-1.7371,-1.7356,-1.7388,-1.7401,-1.7407,-1.7335,-1.7334,-1.7334,-1.7334,0,0,-1.7115,-1.7149,-1.7156,-1.7169,-1.7197,-1.7218,-1.7247,-1.7275,-1.729,-1.7312,-1.7336,-1.7375,-1.737,-1.7387,-1.7392,-1.7412,-1.7445,-1.7404,-1.7404,-1.7409,-1.749,-1.7492,-1.7498,-1.7445,-1.7446,-1.7447,-1.7487,0,-1.7154,-1.7205,-1.7213,-1.7258,-1.7282,-1.7283,-1.7309,-1.7329,-1.734,-1.7363,-1.7375,-1.7402,-1.7394,-1.7404,-1.7423,-1.7437,-1.7461,-1.7434,-1.7466,-1.7467,-1.7458,-1.7506,-1.7508,-1.7545,-1.7492,-1.7493,-1.7494,0,-1.7207,-1.7229,-1.7276,-1.7299,-1.731,-1.7333,-1.7359,-1.7381,-1.7404,-1.741,-1.7429,-1.7433,-1.7463,-1.7449,-1.7491,-1.7472,-1.7486,-1.7495,-1.7497,-1.7498,-1.7481,-1.7507,-1.7557,-1.7562,-1.7503,-1.7502,-1.7501,0,-1.7231,-1.7274,-1.7307,-1.7319,-1.7348,-1.7363,-1.7376,-1.7398,-1.7414,-1.7437,-1.7448,-1.7475,-1.7489,-1.751,-1.7521,-1.751,-1.7562,-1.7549,-1.7568,-1.7567,-1.7577,-1.7576,-1.7629,-1.7589,-1.7589,-1.7589,-1.7589,0,-1.7273,-1.7301,-1.7318,-1.7339,-1.737,-1.738,-1.7411,-1.7424,-1.7443,-1.7466,-1.747,-1.7492,-1.7505,-1.7529,-1.7538,-1.7571,-1.7578,-1.7584,-1.7585,-1.7582,-1.7581,-1.759,-1.7587,-1.7591,-1.759,-1.759,-1.759,0,-1.7305,-1.7318,-1.7354,-1.7378,-1.7385,-1.7407,-1.7428,-1.7448,-1.7459,-1.7488,-1.7496,-1.7514,-1.7542,-1.7555,-1.759,-1.7596,-1.7633,-1.7634,-1.7625,-1.7625,-1.7643,-1.764,-1.7701,-1.7709,-1.7667,-1.7667,-1.7667,0,-1.733,-1.7352,-1.7378,-1.7393,-1.7406,-1.7431,-1.7447,-1.7459,-1.7476,-1.7503,-1.752,-1.7548,-1.7571,-1.7616,-1.7632,-1.7659,-1.7659,-1.7679,-1.7663,-1.7659,-1.7657,-1.7655,-1.7657,-1.7681,-1.7681,-1.7682,-1.7682,0,-1.7372,-1.7378,-1.7401,-1.7426,-1.7445,-1.7466,-1.7487,-1.7499,-1.7514,-1.7533,-1.7561,-1.7579,-1.7615,-1.7642,-1.767,-1.7684,-1.7685,-1.7687,-1.7693,-1.7689,-1.7682,-1.7684,-1.763,-1.7685,-1.7685,-1.7685,-1.7685,-1.7684,-1.74,-1.7419,-1.744,-1.7466,-1.7483,-1.7502,-1.7521,-1.7535,-1.7558,-1.7587,-1.7593,-1.7623,-1.7646,-1.7683,-1.7698,-1.7722,-1.7717,-1.7726,-1.7728,-1.7729,-1.7729,-1.768,-1.7727,-1.7727,-1.7727,-1.7727,-1.7727,0,-1.7441,-1.7455,-1.7479,-1.7507,-1.7527,-1.7527,-1.7549,-1.7566,-1.7592,-1.7613,-1.7635,-1.7668,-1.7695,-1.7714,-1.7741,-1.7756,-1.7758,-1.7763,-1.7761,-1.7764,-1.7732,-1.7724,-1.7762,-1.7762,-1.7762,-1.7762,-1.7762,-1.7761,-1.7465,-1.7496,-1.7504,-1.7543,-1.7557,-1.7586,-1.7599,-1.7616,-1.7633,-1.7668,-1.7691,-1.7703,-1.7723,-1.7752,-1.7777,-1.7782,-1.7791,-1.7796,-1.78,-1.777,-1.7766,-1.7763,-1.7755,-1.7798,-1.7798,-1.783,-1.783,-1.783]},{"header":{"parameterUnit":"m.s-1","parameterCategory":1,"la1":30.2991,"la2":30.254,"lo1":-89.0895,"lo2":-89.0444,"dy":0.0017,"dx":0.0017,"nx":28,"ny":28,"refTime":"2023-03-22T21:00:00:Z","depth":0,"parameterNumber":3,"parameterNumberName":"V-component_of_WINDS"},"data":[0,0,0,0,0,0,0,0,0,0,0,0,0,0,0,0,0,0,0,0,0,0,0,0,0,0,0,0,0,0,0,0,0,0,0,0,0,0,0,0,0,0,0,0,0,0,0,0,0,0,0,0,0,0,0,0,0,0,4.0659,4.0658,0,4.0583,4.0582,4.0581,4.06,4.0602,4.0603,4.0605,4.0521,4.0517,4.0513,0,0,0,0,0,0,0,0,0,0,0,0,0,4.0817,4.0814,4.0659,4.0658,4.0657,4.0583,4.0582,4.0581,4.06,4.0602,4.0604,4.0605,4.0522,4.0518,4.0513,0,0,0,0,0,0,0,0,0,0,0,0,0,4.0745,4.0813,4.0659,4.0658,4.0657,4.0584,4.0582,4.0581,4.06,4.0602,4.0604,4.0606,4.0523,4.0518,4.0513,4.0434,0,0,4.0496,4.0494,0,0,0,0,0,0,0,0,4.0749,4.0739,4.0659,4.0658,4.0657,4.0604,4.0607,4.0531,4.0599,4.0621,4.0605,4.0607,4.0546,4.0539,4.0519,4.043,4.0426,4.0495,4.0492,4.049,4.0488,0,0,0,0,0,0,0,4.0754,4.0743,4.0629,4.0658,4.0656,4.066,4.0652,4.0593,4.0572,4.0619,4.0621,4.0612,4.0546,4.0525,4.0518,4.0425,4.0496,4.0491,4.0487,4.0485,4.0271,4.0269,0,0,0,0,0,0,4.0761,4.0747,4.0631,4.0627,4.071,4.0655,4.0647,4.0618,4.0572,4.0568,4.061,4.0613,4.0533,4.0524,4.0515,4.0422,4.049,4.0485,4.0482,4.0273,4.0271,4.0268,0,0,0,0,0,0,4.0764,4.075,4.0634,4.0687,4.0673,4.065,4.0618,4.0616,4.0595,4.0565,4.0561,4.0592,4.0534,4.0522,4.0455,4.0419,4.0482,4.0477,4.0276,4.0273,4.0269,4.0235,0,0,0,0,0,0,4.0768,4.0751,4.0722,4.0686,4.067,4.0577,4.0616,4.0612,4.0586,4.0589,4.0548,4.0543,4.0535,4.0463,4.045,4.0413,4.0473,4.0279,4.0275,4.027,4.0239,4.023,4.0223,0,0,0,0,0,4.0774,4.0713,4.072,4.0706,4.0633,4.0575,4.0565,4.0559,4.0583,4.0553,4.0535,4.0544,4.0426,4.0456,4.0441,4.0402,4.0282,4.0276,4.0271,4.0242,4.0232,4.0223,0,0,0,0,0,0,4.0741,4.0708,4.0716,4.0641,4.0611,4.0578,4.054,4.0547,4.0508,4.0512,4.0505,4.0495,4.0427,4.0408,4.0442,4.0326,4.0357,4.0348,4.0341,4.033,4.0323,4.0329,4.0468,0,0,0,0,0,4.0726,4.0683,4.0656,4.0593,4.0578,4.0561,4.0536,4.0534,4.0502,4.0488,4.0465,4.0432,4.0387,4.0358,4.0315,4.0237,4.0229,4.0203,4.0195,4.0188,4.0181,4.0141,4.013,4.025,4.025,4.025,0,0,4.0692,4.0669,4.0642,4.0586,4.0562,4.0518,4.055,4.05,4.0468,4.048,4.0416,4.0398,4.0361,4.0289,4.0256,4.027,4.0146,4.0181,4.0176,4.0172,4.0134,4.0123,4.0113,4.0246,4.0247,4.0248,0,0,4.0609,4.0587,4.0534,4.0511,4.0476,4.0466,4.0454,4.042,4.041,4.0346,4.0356,4.0316,4.0238,4.0213,4.0189,4.0101,4.0109,4.0087,4.0045,4.0006,3.9997,3.9989,3.9959,3.9948,4.008,4.008,4.008,0,4.0571,4.0506,4.0504,4.0456,4.0431,4.0444,4.0391,4.0367,4.0319,4.0302,4.032,4.0227,4.0201,4.0125,4.0104,4.0084,4.007,4.0091,3.9999,3.999,3.9982,3.9954,3.9943,4.0077,4.0078,4.0078,4.0078,0,4.0463,4.0418,4.0378,4.0336,4.0307,4.0256,4.0246,4.0217,4.0219,4.0207,4.0144,4.0116,4.0069,4.0051,4.005,3.9975,3.9986,4.0001,4.0033,3.9969,3.9942,3.9931,4.0074,4.0075,4.0075,4.0076,0,0,4.0353,4.0315,4.03,4.0283,4.0247,4.0212,4.0162,4.0119,4.0095,4.0062,4.0021,3.9958,3.9973,3.9947,3.9944,3.991,3.9845,3.993,3.9929,3.9917,3.9763,3.9752,3.9739,3.9851,3.9849,3.9847,3.9767,0,4.0269,4.0183,4.0182,4.0103,4.0063,4.0077,4.0033,4.0007,3.9995,3.9959,3.9945,3.9902,3.9924,3.9909,3.9876,3.986,3.9814,3.9866,3.9812,3.981,3.9822,3.9725,3.9713,3.9638,3.9756,3.9754,3.9753,0,4.0157,4.0126,4.0044,4.0018,4.0001,3.9962,3.9925,3.989,3.986,3.9855,3.9828,3.9831,3.9781,3.9815,3.9745,3.978,3.9759,3.9748,3.9745,3.9739,3.9778,3.9718,3.9614,3.9603,3.9736,3.9737,3.9739,0,4.0089,4.0025,3.9969,3.9953,3.9921,3.9894,3.9879,3.9852,3.9828,3.9795,3.9779,3.9739,3.9718,3.9687,3.968,3.9705,3.9611,3.9644,3.9605,3.9606,3.9584,3.9586,3.9476,3.9569,3.9569,3.9569,3.957,0,3.9994,3.9944,3.9938,3.9903,3.9848,3.9848,3.9792,3.9779,3.9756,3.9719,3.9727,3.9692,3.9685,3.9648,3.9642,3.9587,3.9576,3.9571,3.957,3.957,3.9571,3.9556,3.9561,3.9566,3.9567,3.9568,3.9568,0,3.9907,3.9901,3.9842,3.9818,3.9811,3.9772,3.9751,3.9718,3.9709,3.9662,3.9651,3.9637,3.9594,3.9585,3.9533,3.9529,3.9465,3.9468,3.9475,3.9476,3.9439,3.9443,3.9315,3.9299,3.9402,3.9401,3.94,0,3.9848,3.9811,3.9785,3.9762,3.9747,3.9709,3.9686,3.9684,3.9659,3.9626,3.9597,3.9557,3.9524,3.9456,3.944,3.9401,3.9405,3.9363,3.9399,3.9402,3.9406,3.9409,3.9406,3.9356,3.9355,3.9354,3.9353,0,3.9744,3.9744,3.9711,3.9678,3.9651,3.9624,3.9598,3.9579,3.9574,3.9545,3.9504,3.9479,3.9429,3.9389,3.9352,3.9335,3.9343,3.9342,3.9332,3.9332,3.9339,3.9337,3.9458,3.9345,3.9346,3.9346,3.9347,3.9347,3.967,3.9639,3.9617,3.9581,3.9562,3.9539,3.9508,3.9498,3.9464,3.9425,3.9426,3.9381,3.9356,3.9306,3.9288,3.9253,3.9266,3.925,3.9246,3.9242,3.924,3.9344,3.9246,3.9246,3.9246,3.9246,3.9246,0,3.9568,3.9556,3.9523,3.9489,3.9461,3.9474,3.9448,3.9423,3.9384,3.9361,3.933,3.9284,3.9246,3.9229,3.9192,3.9167,3.9171,3.9158,3.916,3.9157,3.9229,3.9243,3.9156,3.9156,3.9156,3.9156,3.9156,3.9156,3.9511,3.946,3.9458,3.9399,3.9386,3.9345,3.9329,3.9308,3.929,3.9239,3.9209,3.9199,3.9179,3.9141,3.9107,3.9103,3.909,3.9075,3.9073,3.9142,3.9151,3.916,3.9173,3.9072,3.9072,3.9003,3.9003,3.9002]}]]